TimeCST,TemperatureF,Dew PointF,Humidity,Sea Level PressureIn,VisibilityMPH,Wind Direction,Wind SpeedMPH,Gust SpeedMPH,PrecipitationIn,Events,Conditions,WindDirDegrees,DateUTC
12:15 AM,26.6,19.4,74,29.64,10.0,SW,24.2,32.2,N/A,,Clear,230,2013-02-05 06:15:00
12:35 AM,26.6,19.4,74,29.65,10.0,WSW,24.2,28.8,N/A,,Clear,240,2013-02-05 06:35:00
12:55 AM,26.6,19.4,74,29.64,10.0,WSW,25.3,29.9,N/A,,Partly Cloudy,240,2013-02-05 06:55:00
1:15 AM,26.6,19.4,74,29.64,10.0,SW,23.0,-,N/A,,Clear,230,2013-02-05 07:15:00
1:35 AM,26.6,19.4,74,29.63,10.0,SW,25.3,31.1,N/A,,Clear,230,2013-02-05 07:35:00
1:55 AM,28.4,19.4,69,29.64,10.0,WSW,23.0,31.1,N/A,,Clear,240,2013-02-05 07:55:00
2:15 AM,28.4,21.2,74,29.65,10.0,WSW,20.7,26.5,N/A,,Scattered Clouds,250,2013-02-05 08:15:00
2:35 AM,30.2,21.2,69,29.65,10.0,West,21.9,27.6,N/A,,Scattered Clouds,260,2013-02-05 08:35:00
2:55 AM,30.2,21.2,69,29.64,10.0,West,20.7,-,N/A,,Scattered Clouds,260,2013-02-05 08:55:00
3:15 AM,30.2,23.0,75,29.64,10.0,West,16.1,-,N/A,,Mostly Cloudy,260,2013-02-05 09:15:00
3:35 AM,30.2,24.8,80,29.63,10.0,West,15.0,-,N/A,,Mostly Cloudy,260,2013-02-05 09:35:00
3:55 AM,30.2,23.0,75,29.65,10.0,West,18.4,-,N/A,,Overcast,270,2013-02-05 09:55:00
4:15 AM,30.2,23.0,75,29.66,10.0,West,20.7,-,N/A,,Overcast,270,2013-02-05 10:15:00
4:35 AM,30.2,23.0,75,29.67,10.0,WNW,11.5,-,N/A,,Overcast,290,2013-02-05 10:35:00
4:55 AM,30.2,26.6,86,29.67,9.0,WNW,9.2,-,N/A,,Overcast,300,2013-02-05 10:55:00
5:15 AM,32.0,28.4,87,29.68,8.0,NW,11.5,-,N/A,,Overcast,310,2013-02-05 11:15:00
5:35 AM,32.0,26.6,80,29.69,10.0,WNW,10.4,-,N/A,,Overcast,300,2013-02-05 11:35:00
6:15 AM,30.2,26.6,86,29.70,10.0,WNW,8.1,-,N/A,,Overcast,290,2013-02-05 12:15:00
6:35 AM,32.0,26.6,80,29.71,10.0,WNW,10.4,-,N/A,,Overcast,290,2013-02-05 12:35:00
6:55 AM,30.2,26.6,86,29.71,10.0,WNW,8.1,-,N/A,,Overcast,290,2013-02-05 12:55:00
7:15 AM,32.0,26.6,80,29.73,10.0,WNW,8.1,-,N/A,,Overcast,300,2013-02-05 13:15:00
7:35 AM,32.0,26.6,80,29.74,10.0,WNW,9.2,-,N/A,,Overcast,290,2013-02-05 13:35:00
7:55 AM,32.0,26.6,80,29.75,10.0,WNW,11.5,-,N/A,,Overcast,300,2013-02-05 13:55:00
8:15 AM,32.0,26.6,80,29.76,10.0,WNW,10.4,-,N/A,,Overcast,300,2013-02-05 14:15:00
8:35 AM,33.8,26.6,75,29.78,10.0,NW,15.0,-,N/A,,Overcast,310,2013-02-05 14:35:00
8:55 AM,33.8,28.4,81,29.80,10.0,NW,13.8,-,N/A,,Overcast,310,2013-02-05 14:55:00
9:15 AM,33.8,28.4,81,29.81,10.0,North,12.7,-,N/A,,Overcast,350,2013-02-05 15:15:00
9:35 AM,32.0,28.4,87,29.82,9.0,North,9.2,-,N/A,,Overcast,350,2013-02-05 15:35:00
9:55 AM,32.0,26.6,80,29.84,10.0,NNW,10.4,-,N/A,,Overcast,340,2013-02-05 15:55:00
10:15 AM,32.0,26.6,80,29.85,9.0,NNW,13.8,-,N/A,,Overcast,340,2013-02-05 16:15:00
10:35 AM,30.2,24.8,80,29.87,7.0,North,23.0,27.6,N/A,,Overcast,360,2013-02-05 16:35:00
10:55 AM,26.6,21.2,80,29.89,5.0,NNW,19.6,24.2,N/A,,Overcast,340,2013-02-05 16:55:00
11:15 AM,24.8,21.2,86,29.90,5.0,NNW,17.3,-,N/A,,Overcast,340,2013-02-05 17:15:00
11:35 AM,24.8,21.2,86,29.92,5.0,NNW,15.0,-,N/A,,Overcast,340,2013-02-05 17:35:00
11:55 AM,23.0,19.4,86,29.93,9.0,NNW,15.0,-,N/A,,Overcast,340,2013-02-05 17:55:00
12:15 PM,21.2,15.8,80,29.93,4.0,NNW,18.4,-,N/A,,Overcast,330,2013-02-05 18:15:00
12:35 PM,21.2,17.6,86,29.94,3.0,NW,19.6,-,N/A,,Overcast,320,2013-02-05 18:35:00
12:55 PM,21.2,15.8,80,29.96,7.0,NNW,19.6,23.0,N/A,,Overcast,330,2013-02-05 18:55:00
1:15 PM,21.2,15.8,80,29.96,9.0,NNW,21.9,-,N/A,,Overcast,340,2013-02-05 19:15:00
1:35 PM,21.2,14.0,74,29.96,10.0,NNW,18.4,-,N/A,,Overcast,340,2013-02-05 19:35:00
1:55 PM,21.2,15.8,80,29.97,10.0,NNW,16.1,-,N/A,,Overcast,330,2013-02-05 19:55:00
2:15 PM,21.2,15.8,80,29.97,10.0,NNW,16.1,-,N/A,,Overcast,330,2013-02-05 20:15:00
2:35 PM,21.2,14.0,74,29.97,10.0,NW,16.1,19.6,N/A,,Overcast,320,2013-02-05 20:35:00
2:55 PM,21.2,12.2,68,29.98,10.0,NW,13.8,-,N/A,,Overcast,320,2013-02-05 20:55:00
3:15 PM,21.2,12.2,68,29.99,10.0,NNW,15.0,-,N/A,,Overcast,330,2013-02-05 21:15:00
3:35 PM,19.4,12.2,74,30.00,10.0,NNW,15.0,-,N/A,,Overcast,340,2013-02-05 21:35:00
3:55 PM,19.4,12.2,74,30.00,10.0,NNW,12.7,-,N/A,,Overcast,330,2013-02-05 21:55:00
4:15 PM,19.4,10.4,68,30.01,10.0,NNW,12.7,-,N/A,,Overcast,340,2013-02-05 22:15:00
4:35 PM,19.4,10.4,68,30.00,10.0,NNW,10.4,-,N/A,,Overcast,340,2013-02-05 22:35:00
4:55 PM,19.4,12.2,74,30.01,10.0,NNW,13.8,-,N/A,,Overcast,340,2013-02-05 22:55:00
5:15 PM,19.4,10.4,68,30.01,10.0,North,11.5,-,N/A,,Overcast,350,2013-02-05 23:15:00
5:35 PM,19.4,10.4,68,30.02,10.0,NNW,10.4,-,N/A,,Overcast,340,2013-02-05 23:35:00
5:55 PM,17.6,8.6,68,30.03,10.0,NNW,11.5,-,N/A,,Overcast,340,2013-02-05 23:55:00
6:15 PM,17.6,8.6,68,30.03,10.0,NNW,10.4,-,N/A,,Overcast,340,2013-02-06 00:15:00
6:35 PM,17.6,10.4,73,30.03,10.0,NNW,6.9,-,N/A,,Overcast,340,2013-02-06 00:35:00
6:55 PM,17.6,10.4,73,30.03,10.0,North,6.9,-,N/A,,Overcast,350,2013-02-06 00:55:00
7:15 PM,17.6,10.4,73,30.03,10.0,NNW,5.8,-,N/A,,Overcast,340,2013-02-06 01:15:00
7:35 PM,17.6,8.6,68,30.05,10.0,NNW,9.2,-,N/A,,Overcast,330,2013-02-06 01:35:00
7:55 PM,17.6,10.4,73,30.04,10.0,North,5.8,-,N/A,,Overcast,360,2013-02-06 01:55:00
8:15 PM,17.6,10.4,73,30.03,10.0,NNE,4.6,-,N/A,,Overcast,30,2013-02-06 02:15:00
8:35 PM,17.6,8.6,68,30.03,10.0,NE,5.8,-,N/A,,Overcast,40,2013-02-06 02:35:00
8:55 PM,17.6,8.6,68,30.04,10.0,NE,6.9,-,N/A,,Overcast,40,2013-02-06 02:55:00
9:15 PM,15.8,10.4,79,30.05,10.0,ENE,3.5,-,N/A,,Overcast,60,2013-02-06 03:15:00
9:35 PM,15.8,8.6,73,30.05,10.0,ENE,3.5,-,N/A,,Overcast,70,2013-02-06 03:35:00
9:55 PM,15.8,6.8,68,30.05,10.0,East,4.6,-,N/A,,Mostly Cloudy,100,2013-02-06 03:55:00
10:15 PM,15.8,8.6,73,30.05,10.0,Calm,Calm,-,N/A,,Scattered Clouds,0,2013-02-06 04:15:00
10:35 PM,15.8,8.6,73,30.05,10.0,Calm,Calm,-,N/A,,Scattered Clouds,0,2013-02-06 04:35:00
10:55 PM,15.8,8.6,73,30.05,10.0,SSE,5.8,-,N/A,,Scattered Clouds,160,2013-02-06 04:55:00
11:15 PM,15.8,8.6,73,30.04,10.0,SE,3.5,-,N/A,,Clear,140,2013-02-06 05:15:00
11:35 PM,14.0,8.6,79,30.04,10.0,ESE,4.6,-,N/A,,Clear,110,2013-02-06 05:35:00
11:55 PM,14.0,8.6,79,30.05,10.0,ESE,4.6,-,N/A,,Clear,120,2013-02-06 05:55:00